Weather in Denisovka

Kazakhstan     52°26′21″N   61°44′40″E
temp.,
°C
wind,
m/s
gust,
m/s
humid.,
%
clouds,
%
prec.,
mm/h
press.,
hPa
HPBL,
m
10 may, mon
mon1000:00+15nne6114851 0.0 10141001
03:00+15nne71455100 0.0 1015999
06:00+14nne8145343 0.0 1016712
09:00+16nne9134541 0.0 10171262
12:00+20ne810365 0.0 10181877
15:00+21ne78315 0.0 10182347
18:00+21ene77309 0.0 10192464
21:00+17e68467 0.0 1021524
11 may, tue
tue1100:00+14ene23575 0.0 102338
03:00+12ne35565 0.0 102490
06:00+10ne36505 0.0 102591
09:00+14ene35384 0.0 1027374
12:00+18e45260 0.0 10271594
15:00+20e44230 0.0 10271830
18:00+21ene33230 0.0 10271967
21:00+18e3531100 0.0 1028100
12 may, wed
wed1200:00+14s234070 0.0 102923
03:00+13ssw114393 0.0 102910
06:00+12wnw1145100 0.0 103010
09:00+16w22361 0.0 1030240
12:00+20wnw11260 0.0 10301502
15:00+23w11200 0.0 10291899
18:00+24wnw2217100 0.0 10282097
21:00+22w22226 0.0 102711
13 may, thu
thu1300:00+18w3327100 0.0 102836
03:00+16wnw45315 0.0 102756
06:00+14nnw46396 0.0 1028100
09:00+19n343187 0.0 1028274
12:00+23ne33345 0.0 10271347
15:00+26nne332863 0.0 10262305
18:00+27nne332570 0.0 10262524
21:00+24ne333371 0.0 102638
14 may, fri
fri1400:00+20s114061 0.0 102611
03:00+18w22465 0.0 102614
06:00+17wnw33515 0.0 102726
09:00+22nw33405 0.0 1028262
12:00+26nnw22285 0.0 10272114
15:00+28nw22235 0.0 10252599
18:00+29nw12205 0.0 10242915
21:00+27ne11265 0.0 102311